Regional Weather Roundup
Issued by NWS Spokane, WA

Home | Current Version | Previous Version | Text Only | Print | Product List | Glossary On
Versions: 1 2 3 4 5 6 7 8 9 10 11 12 13 14 15 16 17 18 19 20 21 22 23 24 25 26 27 28 29 30 31 32 33 34 35 36 37 38 39 40 41 42 43 44 45 46 47 48 49 50
807
NZUS01 KOTX 040000
RWROTX
EASTERN WASHINGTON/NORTHERN IDAHO ROUNDUP
NATIONAL WEATHER SERVICE, SPOKANE WA
500 PM PDT TUE MAY 03 2016

Note: "fair" indicated few or no clouds below 12,000 feet with no
significant weather and/or obstructions to visibility.

...NORTHEAST WASHINGTON AND NORTHERN IDAHO PANHANDLE...

CITY           SKY/WX    TMP DP  RH WIND       PRES   REMARKS
SPOKANE INTL   PTSUNNY   81  28  14 SW13      29.98F
SPOKANE DOWNTO SUNNY     84  35  17 S9        29.96F
COEUR D ALENE  SUNNY     82  39  21 S9        29.94F
DEER PARK      MOSUNNY   82  36  19 SW9       29.98F

...SOUTHEAST WASHINGTON AND SOUTHERN IDAHO PANHANDLE...

CITY           SKY/WX    TMP DP  RH WIND       PRES   REMARKS
WALLA WALLA    MOSUNNY   84  42  22 NE9       29.89F
PULLMAN/MOSCOW SUNNY     79  34  19 S12G21    30.01F
LOWELL           N/A     79  46  31 S5        29.92F

...COLUMBIA BASIN...

CITY           SKY/WX    TMP DP  RH WIND       PRES   REMARKS
EPHRATA        PTSUNNY   82  38  20 S9        29.91F
MOSES LAKE     PTSUNNY   83  37  19 SW6       29.92F
TRI CITIES     MOSUNNY   91  33  12 VRB6      29.86F
HERMISTON      MOSUNNY   90  35  14 NE8       29.84F
PENDLETON      PTSUNNY   87  34  15 E8        29.88F

...EAST SLOPES CASCADES...

CITY           SKY/WX    TMP DP  RH WIND       PRES   REMARKS
THE DALLES     CLOUDY    78  43  28 W16       29.93R
YAKIMA         CLOUDY    85  42  22 W3        29.90F
ELLENSBURG     CLOUDY    81  39  22 SW8       29.93F
STAMPEDE PASS  CLOUDY    59  42  53 VRB6      30.08S
WENATCHEE      CLOUDY    80  42  25 SE7       29.91F
OMAK           PTSUNNY   85  33  15 S10       29.91F

...SOUTHERN BRITISH COLUMBIA...

CITY           SKY/WX    TMP DP  RH WIND       PRES   REMARKS

...WESTERN MONTANA...

CITY           SKY/WX    TMP DP  RH WIND       PRES   REMARKS
MISSOULA       SUNNY     80  31  16 S3        30.01F

...NEIGHBORING CITIES...

CITY           SKY/WX    TMP DP  RH WIND       PRES   REMARKS
SEATTLE        CLOUDY    71  53  52 SW8       30.04F



USA.gov is the U.S. government's official web portal to all federal, state and local government web resources and services.